World > North America > United States > Colorado

Wiley, Colorado Regional Weather

Lat: 38.16N, Lon: 102.72W
Wx Zone: COZ098Web Search

Helpful Tip: Type the letters wx in the search engine next time you need to find us.

Feedback
Wiley Weather Map
UTC Time: 1/21/2021, 05:34
Your Time:

Wiley, CO Regional Weather

Expires:202101210600;;243840
ASUS45 KBOU 210510
RWRCO 

WEATHER ROUNDUP FOR COLORADO
NATIONAL WEATHER SERVICE DENVER/BOULDER CO
1000 PM MST WED JAN 20 2021

NOTE: "FAIR" INDICATES FEW OR NO CLOUDS BELOW 12000 FEET WITH NO
SIGNIFICANT WEATHER AND/OR OBSTRUCTIONS TO VISIBILITY.


COZ086-089-092>099-210600-
...SOUTHEAST COLORADO...
  
CITY           SKY/WX    TMP DP  RH WIND       PRES   REMARKS
PUEBLO         FAIR      37  15  40 N14       29.98R                  
LA JUNTA       FAIR      41  26  55 CALM      29.95R                  
LAMAR          FAIR      32  15  49 CALM      29.96R                  
SPRINGFIELD      N/A     36  20  52 NW5       29.96S                  
$$
  

SKY/WX - Weather  TMP - Temperature  DP - Dew Point  RH - Relative Humidity
WIND - Wind Direction/Speed PRES - Barometric Pressure VSB - Visibility
WCI - Wind Chill Index E13G22 Wind - East Wind 13 mph/Gusts of 22 mph